STARLINK-4205 (53174 NORAD) Tracking and Keplerian Element Data

This shows tracking and keplerian element data for the satellite.

Feedback or suggestion? Click here.




ElementValue
Catalog53174
NameSTARLINK-4205
Epoch Orbit1171
Epoch Day270.25001157
Epoch Year2022
RAAN67.9476
Inclination53.2186
Eccentricity0.0001458
Argument of Perigee66.2944
Mean Anonmoly182.0965
Mean Motion15.08824524
Decay Rate-0.00011817
L11 53174U 22083AU 22270.25001157 -.00011817 00000+0 -72591-3 0 9995
L22 53174 53.2186 67.9476 0001458 66.2944 182.0965 15.08824524 11715

Live tracking and technical data element details for STARLINK-4205 (NORAD 53174). STARLINK-4205 can be tracked NOW for your location showing map with azimuth and elevation plus other details from your city location.

Track the satellite on the map from your city or location and see movement details for azimuth, elevation, latitude, longitude, range, height, and movement on the map or in text.







IsCatalogInMostPopularTable: catalog: 53174, numindb: 5
Update: records affected: 1



GetName: 53174 STARLINK-4205

Hit Count: updated at: Wed, 28 Sep 2022 23:09:01 GMT